Dallas Redbird, TX

3:32 AM CST on December 12, 2017 (GMT -0600)
Redbird

Weather History for KRBD - October, 2012

Change the Weather History Date:

Sunday, October 7, 2012

  Actual Average Record
Temperature  
Mean Temperature 50 °F -  
Max Temperature 54 °F 77 °F 97 °F (2014)
Min Temperature 48 °F 57 °F 43 °F (2000)
Degree Days  
Heating Degree Days 14    
Moisture  
Dew Point 35 °F    
Average Humidity 56    
Maximum Humidity 66    
Minimum Humidity 45    
Precipitation  
Precipitation 0.00 in - - ()
Sea Level Pressure  
Sea Level Pressure 30.25 in    
Wind  
Wind Speed 9 mph (NNE)    
Max Wind Speed 14 mph    
Max Gust Speed 18 mph    
Visibility 10 miles    
Events Rain    
Averages and records for this station are not official NWS values.
T = Trace of Precipitation, MM = Missing Value Source: NWS Daily Summary

Daily Weather History Graph

Daily Weather History Graph

Search for Another Location

Airport or City:

Trip Planner

Search our weather history database for the weather conditions in past years. The results will help you decide how hot, cold, wet, or windy it might be!

Date:

Astronomy

Oct. 07, 2012 Rise Set
Actual Time 7:26 AM CDT 7:03 PM CDT
Civil Twilight 7:01 AM CDT 7:28 PM CDT
Nautical Twilight 6:32 AM CDT 7:56 PM CDT
Astronomical Twilight 6:04 AM CDT 8:25 PM CDT
Moon No Moon Rise 1:51 PM CDT (10/7)
Length of Visible Light 12h 26m
Length of Day
11h 37m
Waning Gibbous, 56% of the Moon is Illuminated
Oct 7
Waning Gibbous
Oct 8
Last Quarter
Oct 15
New
Oct 21
First Quarter
Oct 29
Full

Hourly Weather History & Observations

Time (CDT) Temp. Dew Point Humidity Pressure Visibility Wind Dir Wind Speed Gust Speed Precip Events Conditions
12:53 AM 48.9 °F 37.0 °F 64% 30.25 in 10.0 mi NNE 13.8 mph - N/A   Overcast
1:53 AM 48.9 °F 37.0 °F 64% 30.25 in 10.0 mi NNE 12.7 mph 18.4 mph N/A   Overcast
2:53 AM 48.9 °F 36.0 °F 61% 30.25 in 10.0 mi NNE 10.4 mph - N/A   Overcast
3:53 AM 48.9 °F 37.0 °F 64% 30.26 in 10.0 mi North 9.2 mph - N/A   Overcast
4:53 AM 48.9 °F 37.0 °F 64% 30.26 in 10.0 mi NNE 8.1 mph - N/A   Overcast
5:53 AM 48.9 °F 37.9 °F 66% 30.26 in 10.0 mi North 6.9 mph - N/A   Overcast
6:53 AM 48.9 °F 36.0 °F 61% 30.28 in 10.0 mi NNE 9.2 mph - N/A   Overcast
7:53 AM 50.0 °F 36.0 °F 59% 30.29 in 10.0 mi NNE 8.1 mph - N/A   Overcast
8:53 AM 50.0 °F 36.0 °F 59% 30.29 in 10.0 mi NE 8.1 mph - N/A   Overcast
9:53 AM 51.1 °F 37.0 °F 59% 30.30 in 10.0 mi NNE 9.2 mph - N/A   Overcast
10:53 AM 51.1 °F 35.1 °F 54% 30.31 in 10.0 mi NNE 6.9 mph - N/A   Overcast
11:53 AM 52.0 °F 34.0 °F 50% 30.30 in 10.0 mi North 6.9 mph - N/A   Overcast
12:53 PM 52.0 °F 34.0 °F 50% 30.27 in 10.0 mi NNE 5.8 mph - N/A   Overcast
1:53 PM 53.1 °F 32.0 °F 45% 30.25 in 10.0 mi North 6.9 mph - N/A   Overcast
2:53 PM 53.1 °F 32.0 °F 45% 30.22 in 10.0 mi NNW 6.9 mph - N/A   Overcast
3:53 PM 53.1 °F 32.0 °F 45% 30.20 in 10.0 mi North 9.2 mph - N/A   Overcast
4:53 PM 53.1 °F 33.1 °F 47% 30.21 in 10.0 mi NNE 9.2 mph - N/A   Overcast
5:53 PM 52.0 °F 33.1 °F 49% 30.21 in 10.0 mi North 4.6 mph - N/A   Overcast
6:53 PM 51.1 °F 36.0 °F 56% 30.22 in 10.0 mi North 4.6 mph - 0.00 in Rain Light Rain
7:53 PM 52.0 °F 35.1 °F 53% 30.22 in 10.0 mi NNE 5.8 mph - 0.00 in   Overcast
8:53 PM 51.1 °F 35.1 °F 54% 30.23 in 10.0 mi NNE 4.6 mph - N/A   Overcast
9:53 PM 50.0 °F 37.0 °F 61% 30.25 in 10.0 mi North 5.8 mph - N/A   Overcast
10:53 PM 51.1 °F 36.0 °F 56% 30.25 in 10.0 mi Calm Calm - N/A   Overcast
11:53 PM 50.0 °F 37.0 °F 61% 30.23 in 10.0 mi Calm Calm - N/A   Overcast